Wind_Speed
20 19 18 18 18 19 19 20 20 19 19 18 16 15 13 12 11 9 8 7 5 4 3 3 2 2 2 2 3 4 5 5 5 5 5 5 5 5 5 5 6 6 7
22 21 20 19 19 19 19 19 20 21 20 20 19 17 16 14 13 12 10 9 8 6 5 5 4 4 4 4 4 5 5 6 6 6 6 6 6 6 6 7 7 7 8
24 23 22 21 20 20 20 20 20 21 21 21 21 19 18 17 15 14 13 11 10 9 8 7 6 5 5 5 5 6 6 7 7 7 8 8 8 8 8 8 8 8 9
27 26 25 24 23 22 21 22 22 22 22 22 22 21 21 20 18 16 15 14 12 11 10 9 8 7 7 7 7 7 7 8 8 9 9 9 10 10 10 10 10 10 10
30 29 27 26 25 24 23 23 23 23 23 23 23 23 23 22 21 19 17 16 15 13 12 11 10 9 9 9 8 8 8 9 9 10 10 11 11 11 12 12 12 12 12
33 31 30 29 28 26 25 24 24 24 25 24 24 24 23 23 22 21 20 19 17 16 15 13 12 12 11 11 10 10 10 10 11 11 12 12 13 13 13 13 14 13 14
36 35 33 32 30 29 28 27 26 26 26 26 25 25 24 24 24 23 22 21 20 18 17 16 15 14 13 13 13 12 12 12 13 13 13 14 14 14 15 15 15 15 15
40 38 37 35 33 32 30 29 28 27 27 27 27 26 26 25 25 25 24 23 22 21 19 18 17 16 16 16 15 15 15 15 15 15 15 15 16 16 16 17 17 17 17
43 41 40 39 37 35 34 32 31 29 29 28 28 27 27 27 26 26 26 25 24 23 22 21 20 19 19 18 18 17 17 17 17 16 17 17 17 18 18 18 19 19 19
45 44 43 42 40 38 37 35 34 33 32 30 30 29 29 29 28 28 27 27 26 26 25 24 23 22 21 21 20 20 19 19 19 19 19 19 19 20 20 20 20 21 21
45 46 46 45 43 42 40 39 38 36 35 33 32 32 31 31 30 30 29 29 28 28 27 26 25 25 24 23 23 22 22 21 21 21 21 21 21 22 22 22 22 23 23
47 47 47 46 46 45 43 42 40 39 38 36 35 34 33 32 32 32 32 31 30 30 29 28 28 27 27 26 25 25 24 24 23 23 23 23 23 23 24 24 25 25 25
48 48 48 48 48 47 46 45 44 42 41 39 38 36 35 34 34 34 33 33 33 32 31 31 30 30 29 28 28 27 27 26 25 25 25 25 25 25 26 26 27 27 27
50 50 49 49 49 49 48 47 46 46 44 42 41 40 38 37 36 36 35 35 35 35 34 33 32 32 32 31 31 30 29 29 28 28 27 27 27 27 27 27 28 28 28
52 52 52 51 50 50 50 49 49 48 47 45 44 43 42 40 39 38 37 37 37 37 36 35 35 34 33 32 32 31 31 31 30 30 30 29 29 29 29 29 29 30 30
53 53 53 53 53 52 51 51 51 50 49 48 46 45 44 43 42 41 40 39 39 38 38 38 37 37 36 35 34 34 33 33 32 32 31 31 31 31 31 31 31 32 32
53 54 54 55 55 54 54 53 53 52 51 50 48 48 47 45 44 44 42 41 41 41 40 40 40 39 39 38 37 37 36 35 35 34 34 33 33 33 33 33 33 33 33
53 54 55 56 56 57 56 56 55 54 53 52 50 50 49 47 46 45 43 43 43 43 42 41 41 41 40 39 39 39 38 38 38 36 36 35 35 35 35 35 35 35 36
53 53 54 55 56 57 58 57 56 55 54 53 52 51 50 49 48 47 45 44 44 43 43 42 42 41 41 41 40 40 39 39 39 38 37 36 37 37 37 37 38 38 38
53 53 53 54 54 56 58 59 58 56 55 55 53 51 51 51 50 49 48 47 45 45 44 43 42 42 43 42 41 41 40 41 41 39 38 38 39 39 39 39 39 39 39
51 52 52 52 53 55 56 57 58 58 57 56 55 53 52 53 52 51 50 49 48 46 45 44 44 43 42 43 43 43 42 42 41 41 41 40 40 40 40 41 40 40 40
47 49 49 49 50 52 54 56 56 58 58 57 56 54 53 54 54 52 51 50 49 48 46 45 44 44 44 43 43 43 43 42 42 41 41 41 41 42 42 43 42 42 41
44 45 46 48 48 49 51 52 53 55 57 56 55 55 55 54 54 53 52 51 49 47 46 45 44 44 45 44 44 43 42 42 42 42 43 43 43 43 42 43 43 43 43
39 42 43 45 46 47 48 50 52 52 54 53 53 54 54 54 54 52 51 50 50 49 48 48 47 45 44 44 44 44 44 43 43 43 43 43 43 42 42 43 44 44 44
33 36 39 41 43 44 45 46 47 49 49 50 51 52 53 54 53 52 51 50 49 48 47 48 48 47 45 45 45 46 46 45 44 44 43 42 43 43 44 45 46 46 46
28 31 33 35 38 40 42 43 45 46 46 47 48 49 50 50 50 50 50 49 49 48 47 46 46 47 46 46 46 46 45 45 44 45 44 43 43 44 45 47 48 48 49
Wind_Direction
249 249 247 246 245 245 243 243 244 244 244 244 245 247 248 247 245 241 238 237 234 232 230 232 237 235 237 233 227 230 232 236 245 255 263 271 282 294 302 310 318 324 329
249 249 249 248 247 246 246 245 245 244 244 244 245 246 248 248 248 246 243 241 241 239 237 237 240 241 242 241 239 237 237 240 247 255 261 267 275 285 292 299 306 312 317
248 248 249 248 247 246 246 246 246 245 244 245 245 246 247 248 249 248 247 245 245 245 243 241 243 244 244 244 246 245 242 244 249 255 260 265 271 278 284 290 296 302 307
247 247 248 248 248 248 248 248 247 247 246 246 246 246 246 247 248 249 249 248 248 248 246 244 246 245 245 246 247 249 249 249 252 256 259 264 268 273 279 284 288 294 299
245 246 246 247 248 248 249 249 249 248 248 247 247 247 247 247 248 249 250 250 250 250 249 248 248 247 247 247 247 249 253 255 255 257 260 263 266 270 275 279 283 288 292
243 244 245 246 247 248 249 249 249 248 248 248 247 248 248 248 248 248 250 251 251 251 251 251 251 250 249 249 249 251 254 256 258 260 263 265 266 268 273 277 280 284 288
242 243 244 245 246 247 248 248 248 248 248 248 247 247 248 248 249 249 249 250 251 252 252 252 252 252 251 250 250 253 255 257 259 261 264 266 267 269 272 275 278 282 285
242 242 243 244 244 245 246 247 247 248 248 248 248 247 246 248 248 248 249 250 250 252 253 253 253 253 252 252 251 253 255 257 259 261 263 266 267 269 271 273 276 279 283
242 242 242 243 243 244 245 246 247 247 247 248 248 248 247 247 248 249 249 249 251 251 252 252 253 254 254 254 254 254 255 257 259 261 263 266 267 269 270 272 275 278 281
241 242 242 242 242 243 244 245 246 247 247 247 248 249 248 248 248 249 249 249 250 250 251 251 252 254 255 255 255 255 257 257 259 261 264 266 267 268 269 271 274 276 279
241 241 242 242 242 243 244 245 245 246 247 248 248 249 249 248 248 249 249 249 250 251 251 251 251 253 255 255 256 257 258 258 259 262 264 266 267 268 269 271 273 276 278
242 242 242 242 242 243 243 244 245 246 246 247 248 248 248 249 249 249 249 249 251 252 252 252 252 253 254 255 256 258 259 259 260 262 263 265 267 268 269 271 273 276 278
242 242 242 242 243 243 243 243 244 245 245 246 246 247 247 248 249 249 249 250 251 252 252 253 253 253 254 256 257 258 258 260 261 262 262 263 265 267 269 271 274 277 278
243 243 243 243 243 243 243 243 243 244 245 245 246 246 247 247 248 250 249 250 251 252 252 253 253 253 255 257 257 256 257 259 261 262 263 263 265 266 269 272 275 277 278
244 243 243 243 243 243 243 243 243 244 244 245 245 246 247 247 247 249 250 249 251 252 253 254 254 254 255 255 255 257 258 259 261 262 264 265 266 267 269 271 274 276 278
244 244 244 244 244 243 244 244 244 245 244 244 244 245 245 246 247 248 249 249 250 252 253 254 254 254 255 256 257 258 260 261 261 263 264 266 268 269 270 272 274 276 277
245 244 243 243 243 243 244 244 244 244 244 244 244 244 245 246 246 247 248 250 251 252 252 253 254 255 256 257 257 258 260 261 262 263 265 266 267 268 270 272 274 276 277
245 245 245 244 243 243 244 244 243 242 243 243 243 243 244 245 245 245 247 249 250 251 251 253 254 255 255 256 258 259 260 260 262 264 264 266 267 268 270 273 274 276 277
244 245 245 245 244 243 243 243 243 242 241 241 241 243 244 244 245 246 246 248 250 250 250 252 254 255 256 258 259 260 260 261 261 263 264 266 268 269 271 272 274 274 276
245 245 245 245 244 243 243 242 241 240 239 240 240 242 243 244 244 244 245 247 250 250 250 251 253 255 256 257 258 260 260 261 262 263 265 267 269 270 272 272 273 274 276
245 245 245 245 245 244 242 241 241 240 239 239 240 241 242 243 243 244 244 246 248 250 250 249 251 254 256 257 258 259 261 262 263 264 265 267 270 271 272 273 273 274 275
245 245 244 245 245 244 242 241 241 240 239 239 239 239 241 242 243 243 243 246 248 249 249 250 251 253 255 257 259 260 261 262 263 265 266 268 270 272 273 274 274 275 275
244 244 244 243 243 243 242 241 240 239 238 238 238 239 240 241 241 242 242 244 246 247 248 249 250 253 254 256 257 260 262 263 264 265 267 269 270 271 273 275 275 276 277
245 244 244 243 243 243 242 240 240 239 238 238 239 238 239 239 240 240 242 244 245 247 248 248 249 252 255 256 258 261 263 264 265 266 267 269 271 272 273 275 276 277 278
246 244 242 242 242 242 241 240 239 237 237 237 237 238 238 240 241 241 243 244 245 247 249 249 250 251 254 257 259 261 263 264 266 267 267 268 270 272 273 275 276 277 278
246 243 241 241 239 239 239 239 237 236 235 236 236 237 238 239 240 241 242 244 247 249 250 252 252 253 254 258 260 262 263 264 266 268 268 269 270 272 274 276 277 278 280
Height
5861 5863 5864 5865 5867 5868 5869 5870 5871 5872 5873 5874 5875 5875 5876 5876 5877 5877 5877 5877 5877 5877 5877 5877 5877 5877 5877 5877 5877 5877 5877 5877 5877 5878 5878 5877 5877 5877 5876 5876 5875 5874 5874
5858 5859 5861 5862 5864 5865 5866 5867 5868 5869 5870 5871 5872 5873 5874 5875 5875 5876 5876 5876 5876 5876 5876 5876 5876 5876 5876 5876 5876 5876 5876 5876 5876 5876 5876 5876 5876 5876 5875 5875 5874 5874 5873
5854 5855 5857 5858 5860 5861 5863 5864 5865 5866 5867 5869 5870 5871 5872 5872 5873 5874 5874 5874 5874 5875 5875 5875 5875 5875 5875 5875 5875 5875 5875 5875 5875 5875 5875 5875 5875 5875 5874 5874 5873 5873 5872
5850 5851 5853 5855 5856 5858 5859 5861 5862 5863 5864 5865 5867 5868 5869 5870 5871 5871 5872 5872 5873 5873 5873 5873 5873 5873 5873 5873 5873 5874 5873 5873 5873 5874 5874 5873 5873 5873 5873 5872 5872 5871 5871
5845 5846 5848 5850 5852 5854 5856 5857 5858 5860 5861 5862 5863 5864 5865 5867 5868 5868 5869 5870 5870 5871 5871 5871 5871 5872 5872 5872 5872 5872 5872 5872 5872 5872 5872 5871 5871 5871 5871 5871 5870 5870 5869
5839 5841 5843 5845 5847 5849 5851 5853 5854 5856 5857 5858 5859 5861 5862 5863 5864 5865 5866 5867 5868 5868 5869 5869 5869 5870 5870 5870 5870 5870 5870 5870 5870 5870 5870 5869 5869 5869 5869 5869 5868 5867 5867
5833 5836 5838 5840 5842 5844 5846 5848 5850 5851 5853 5854 5855 5857 5858 5860 5861 5862 5863 5864 5865 5865 5866 5867 5867 5867 5867 5867 5868 5868 5868 5868 5868 5867 5867 5867 5867 5867 5866 5866 5865 5865 5864
5827 5829 5832 5834 5837 5839 5841 5843 5845 5846 5848 5849 5851 5852 5854 5855 5857 5858 5859 5860 5861 5862 5863 5864 5864 5864 5864 5865 5865 5865 5865 5865 5865 5865 5864 5864 5864 5864 5864 5863 5863 5862 5861
5819 5822 5825 5828 5830 5833 5835 5837 5839 5841 5843 5845 5846 5848 5849 5851 5852 5854 5855 5856 5857 5858 5859 5860 5860 5861 5861 5861 5862 5862 5862 5862 5862 5862 5861 5861 5861 5861 5860 5860 5859 5859 5858
5811 5815 5818 5820 5823 5826 5829 5831 5834 5836 5838 5839 5841 5843 5845 5846 5848 5849 5850 5852 5853 5854 5855 5856 5856 5857 5858 5858 5858 5858 5858 5858 5858 5858 5858 5858 5858 5857 5857 5856 5856 5855 5854
5803 5807 5810 5813 5816 5819 5822 5824 5827 5829 5832 5833 5835 5837 5839 5841 5842 5844 5845 5847 5848 5849 5850 5851 5852 5853 5853 5854 5854 5854 5854 5854 5854 5854 5854 5854 5854 5853 5853 5852 5852 5851 5850
5795 5798 5802 5805 5808 5811 5814 5817 5820 5822 5825 5827 5829 5831 5833 5835 5837 5838 5840 5841 5843 5844 5845 5846 5847 5848 5848 5849 5849 5850 5850 5850 5850 5850 5850 5849 5849 5849 5848 5848 5847 5846 5846
5785 5789 5793 5796 5799 5802 5806 5809 5812 5815 5818 5820 5823 5825 5827 5829 5831 5832 5834 5836 5837 5838 5840 5841 5841 5842 5843 5844 5844 5845 5845 5845 5845 5845 5845 5844 5844 5844 5843 5843 5842 5842 5841
5775 5779 5783 5787 5790 5793 5797 5800 5804 5807 5810 5813 5815 5818 5820 5822 5824 5826 5828 5829 5831 5832 5834 5835 5836 5837 5838 5838 5839 5839 5839 5840 5840 5840 5840 5839 5839 5839 5838 5838 5837 5836 5835
5765 5769 5772 5776 5780 5784 5787 5791 5795 5798 5801 5805 5808 5810 5813 5815 5817 5819 5821 5822 5824 5826 5827 5829 5830 5830 5831 5832 5833 5833 5834 5834 5834 5834 5834 5834 5834 5833 5833 5832 5831 5831 5830
5753 5757 5761 5765 5769 5773 5777 5781 5785 5789 5792 5796 5799 5802 5805 5807 5810 5812 5814 5815 5817 5819 5820 5822 5823 5824 5825 5826 5827 5827 5828 5828 5828 5828 5828 5828 5828 5827 5827 5826 5825 5825 5824
5742 5746 5750 5754 5758 5762 5766 5770 5774 5778 5782 5786 5790 5793 5796 5799 5801 5804 5806 5808 5810 5811 5813 5814 5816 5817 5818 5819 5820 5820 5821 5821 5821 5822 5822 5821 5821 5821 5820 5819 5819 5818 5817
5730 5734 5738 5742 5746 5750 5755 5759 5763 5767 5772 5776 5780 5783 5787 5790 5792 5795 5798 5800 5802 5803 5805 5807 5808 5809 5810 5811 5812 5813 5814 5814 5814 5815 5815 5814 5814 5814 5813 5812 5812 5811 5810
5717 5721 5725 5729 5734 5738 5742 5747 5751 5756 5761 5765 5769 5773 5777 5780 5783 5786 5789 5792 5793 5795 5797 5799 5800 5802 5803 5804 5805 5805 5806 5806 5807 5807 5807 5807 5807 5806 5806 5805 5804 5803 5802
5706 5709 5713 5717 5721 5725 5729 5734 5739 5744 5749 5754 5759 5763 5767 5770 5774 5777 5780 5782 5785 5787 5789 5791 5793 5794 5795 5796 5796 5797 5798 5799 5799 5799 5799 5799 5799 5798 5797 5796 5796 5795 5794
5693 5697 5701 5705 5708 5712 5716 5721 5726 5732 5738 5743 5748 5752 5756 5760 5764 5767 5770 5773 5776 5778 5780 5782 5784 5785 5786 5787 5788 5789 5790 5790 5791 5791 5791 5791 5791 5790 5789 5788 5787 5786 5785
5681 5685 5688 5692 5695 5699 5704 5708 5713 5719 5725 5731 5736 5741 5745 5750 5754 5757 5761 5763 5766 5769 5771 5773 5775 5776 5777 5778 5779 5780 5781 5782 5783 5783 5783 5782 5782 5781 5780 5779 5778 5778 5776
5670 5673 5677 5681 5684 5687 5691 5695 5701 5706 5712 5718 5724 5729 5734 5738 5742 5747 5750 5754 5756 5759 5762 5764 5766 5767 5769 5770 5770 5771 5772 5773 5774 5774 5774 5773 5772 5772 5771 5770 5769 5768 5767
5660 5663 5666 5670 5673 5676 5680 5685 5690 5695 5702 5708 5713 5718 5722 5727 5731 5736 5740 5743 5747 5750 5752 5755 5757 5758 5759 5760 5761 5762 5763 5763 5763 5764 5765 5763 5762 5762 5761 5760 5759 5758 5756
5651 5654 5656 5659 5662 5666 5670 5675 5680 5685 5691 5696 5701 5706 5711 5716 5720 5725 5730 5733 5736 5740 5742 5745 5747 5749 5749 5751 5752 5752 5752 5752 5752 5753 5754 5754 5753 5752 5751 5749 5748 5747 5745
5644 5645 5648 5650 5653 5657 5662 5666 5671 5676 5681 5686 5691 5695 5700 5705 5710 5715 5719 5723 5726 5729 5732 5735 5737 5738 5740 5741 5742 5742 5742 5742 5742 5742 5743 5743 5742 5742 5740 5739 5737 5736 5734